Portage Glacier, AK

2:28 PM AKDT on March 28, 2017 (GMT -0800)
Portage Glacier

Weather History for PATO - October, 2013

Change the Weather History Date:

Saturday, October 5, 2013

  Actual Average (PAWR) Record (PAWR)
Temperature  
Mean Temperature 38 °F -  
Max Temperature 48 °F 46 °F 56 °F (1993)
Min Temperature 28 °F 39 °F 28 °F (1958)
Degree Days  
Heating Degree Days 27    
Moisture  
Dew Point 36 °F    
Average Humidity 93    
Maximum Humidity 100    
Minimum Humidity 71    
Precipitation  
Precipitation 0.03 in - - ()
Sea Level Pressure  
Sea Level Pressure 29.79 in    
Wind  
Wind Speed 3 mph (SE)    
Max Wind Speed 15 mph    
Max Gust Speed 25 mph    
Visibility 7 miles    
Events Fog , Rain    
Averages and records for this station are not official NWS values.
T = Trace of Precipitation, MM = Missing Value Source: NWS Daily Summary

Daily Weather History Graph

Daily Weather History Graph

Search for Another Location

Airport or City:

Trip Planner

Search our weather history database for the weather conditions in past years. The results will help you decide how hot, cold, wet, or windy it might be!

Date:

Astronomy

Oct. 05, 2013 Rise Set
Actual Time 8:12 AM AKDT 7:13 PM AKDT
Civil Twilight 7:29 AM AKDT 7:55 PM AKDT
Nautical Twilight 6:40 AM AKDT 8:45 PM AKDT
Astronomical Twilight 5:48 AM AKDT 9:36 PM AKDT
Moon 9:26 AM AKDT (10/5) 7:09 PM AKDT (10/5)
Length of Visible Light 12h 25m
Length of Day
11h 00m
New Moon, 1% of the Moon is Illuminated
Oct 5
New Moon
Oct 11
First Quarter
Oct 18
Full
Oct 26
Last Quarter
Nov 3
New

Hourly Weather History & Observations

Time (AKDT) Temp. Windchill Dew Point Humidity Pressure Visibility Wind Dir Wind Speed Gust Speed Precip Events Conditions
12:53 AM 30.0 °F - 30.0 °F 100% 29.78 in 10.0 mi Calm Calm - N/A   Clear
1:37 AM 30.0 °F - 30.0 °F 100% 29.78 in 1.8 mi Calm Calm - N/A   Clear
1:42 AM 30.9 °F - 30.0 °F 96% 29.78 in 1.0 mi Calm Calm - N/A   Mist
1:53 AM 30.0 °F - 28.9 °F 96% 29.79 in 1.0 mi Calm Calm - N/A   Mist
2:00 AM 30.0 °F - 30.0 °F 100% 29.78 in 0.8 mi Calm Calm - N/A   Mist
2:06 AM 30.0 °F - 30.0 °F 100% 29.78 in 2.5 mi Calm Calm - N/A   Mostly Cloudy
2:13 AM 30.0 °F - 30.0 °F 100% 29.79 in 3.0 mi Calm Calm - N/A   Mostly Cloudy
2:18 AM 28.9 °F - 28.9 °F 100% 29.79 in 1.5 mi Calm Calm - N/A   Mostly Cloudy
2:46 AM 28.9 °F - 28.9 °F 100% 29.79 in 0.5 mi Calm Calm - N/A Fog Light Freezing Fog
2:53 AM 30.0 °F - 28.9 °F 96% 29.80 in 0.2 mi Calm Calm - N/A Fog Light Freezing Fog
3:02 AM 30.0 °F - 30.0 °F 100% 29.79 in 0.8 mi Calm Calm - N/A   Mist
3:10 AM 30.9 °F 27.5 °F 30.9 °F 100% 29.79 in 2.0 mi ESE 3.5 mph - N/A   Mostly Cloudy
3:19 AM 30.9 °F - 30.0 °F 96% 29.79 in 10.0 mi Calm Calm - N/A   Mostly Cloudy
3:33 AM 30.0 °F - 30.0 °F 100% 29.79 in 1.5 mi Calm Calm - N/A   Mostly Cloudy
3:39 AM 30.0 °F - 30.0 °F 100% 29.79 in 0.5 mi Calm Calm - N/A Fog Light Freezing Fog
3:53 AM 30.0 °F - 30.0 °F 100% 29.80 in 0.8 mi Calm Calm - N/A   Mist
4:00 AM 30.0 °F - 28.9 °F 96% 29.80 in 1.0 mi Calm Calm - N/A   Mist
4:14 AM 28.9 °F - 28.9 °F 100% 29.80 in 2.0 mi Calm Calm - N/A   Scattered Clouds
4:21 AM 28.9 °F - 28.9 °F 100% 29.80 in 10.0 mi Calm Calm - N/A   Partly Cloudy
4:53 AM 28.9 °F - 28.9 °F 100% 29.81 in 3.0 mi Calm Calm - N/A   Clear
5:53 AM 30.0 °F 26.5 °F 28.9 °F 96% 29.81 in 9.0 mi ESE 3.5 mph - N/A   Overcast
6:00 AM 32.0 °F 27.5 °F 30.9 °F 96% 29.81 in 5.0 mi ESE 4.6 mph - N/A   Overcast
6:53 AM 30.0 °F 26.5 °F 30.0 °F 100% 29.82 in 10.0 mi ESE 3.5 mph - N/A   Scattered Clouds
7:53 AM 37.9 °F 32.1 °F 37.0 °F 97% 29.80 in 10.0 mi ESE 8.1 mph - N/A   Overcast
8:17 AM 39.9 °F 33.9 °F 39.0 °F 97% 29.80 in 10.0 mi East 9.2 mph - N/A   Overcast
8:53 AM 43.0 °F 38.2 °F 39.9 °F 89% 29.80 in 10.0 mi ENE 8.1 mph - N/A   Overcast
9:53 AM 43.0 °F 38.8 °F 39.9 °F 89% 29.81 in 10.0 mi Variable 6.9 mph - N/A   Overcast
10:20 AM 46.9 °F - 41.0 °F 80% 29.80 in 10.0 mi Variable 6.9 mph - N/A   Overcast
10:53 AM 46.0 °F 43.9 °F 42.1 °F 86% 29.81 in 10.0 mi Variable 4.6 mph - N/A   Mostly Cloudy
11:44 AM 46.0 °F 41.9 °F 41.0 °F 83% 29.81 in 10.0 mi ESE 8.1 mph - N/A   Overcast
11:53 AM 46.0 °F 41.9 °F 41.0 °F 83% 29.82 in 10.0 mi ESE 8.1 mph - N/A   Overcast
12:53 PM 45.0 °F 39.3 °F 42.1 °F 90% 29.83 in 10.0 mi SE 11.5 mph 16.1 mph N/A   Overcast
1:27 PM 46.0 °F 41.0 °F 43.0 °F 89% 29.82 in 10.0 mi SSE 10.4 mph 17.3 mph N/A   Overcast
1:53 PM 46.0 °F 41.4 °F 43.0 °F 89% 29.82 in 10.0 mi SE 9.2 mph 18.4 mph N/A   Overcast
2:43 PM 46.0 °F 41.9 °F 43.0 °F 89% 29.82 in 10.0 mi SSE 8.1 mph - N/A   Overcast
2:53 PM 46.0 °F 41.9 °F 43.0 °F 89% 29.82 in 10.0 mi SE 8.1 mph - N/A   Overcast
3:28 PM 46.9 °F - 43.0 °F 86% 29.80 in 10.0 mi SE 9.2 mph - N/A   Overcast
3:53 PM 46.9 °F - 43.0 °F 86% 29.81 in 10.0 mi SE 9.2 mph - N/A   Overcast
4:53 PM 46.0 °F 42.5 °F 43.0 °F 89% 29.79 in 7.0 mi Variable 6.9 mph - 0.01 in Rain Light Rain
5:53 PM 46.0 °F 43.1 °F 43.0 °F 89% 29.78 in 10.0 mi Variable 5.8 mph - 0.00 in Rain Light Rain
6:53 PM 45.0 °F 40.1 °F 43.0 °F 93% 29.76 in 10.0 mi SSE 9.2 mph - 0.02 in Rain Light Rain
7:53 PM 46.0 °F 42.5 °F 43.0 °F 89% 29.76 in 10.0 mi SE 6.9 mph - 0.00 in   Overcast
8:53 PM 46.0 °F 41.9 °F 42.1 °F 86% 29.75 in 10.0 mi SE 8.1 mph 17.3 mph N/A   Overcast
9:53 PM 46.9 °F - 39.9 °F 77% 29.75 in 10.0 mi East 15.0 mph 25.3 mph N/A   Overcast
10:53 PM 48.0 °F - 39.0 °F 71% 29.76 in 10.0 mi ESE 9.2 mph 19.6 mph N/A   Overcast
11:53 PM 46.0 °F 41.9 °F 41.0 °F 83% 29.76 in 10.0 mi SE 8.1 mph - N/A   Overcast